Select another period ( hide this area )

Units Period Custom range Directly to
Metric English Both
Daily Weekly Monthly Yearly
use both date-selectors for a custom range
previous Day
With this date

WeatherUnderground graphs for this period ( click here ) Loading the graph can take up to a minute!


Daily Summary for Thursday Jun 4 2020
Time Temp. ( °C ) Dew pt. ( °C ) Wind ( km/h ) From Gust ( km/h ) Pressure ( hPa ) Humid.( % ) Rainrate ( cm )
High15,6 12,2 16,0 WNW ( 100/536 ) 19,0 1003,1 89 1,02
Average14,2 11,0 2,3 Kalm #100/236 7,5 1000,2 82 1,00
Low12,9 8,2 -   0,0 999,3 66 -
Daily Tabular details for Thursday Jun 4 2020
Time Temp. ( °C ) Dew pt. ( °C ) Wind ( km/h ) From Gust ( km/h ) Pressure ( hPa ) Humid.( % ) Rainrate ( cm )
00:01 15,6 11,8   Kalm 3,0 1003,1 78 -
00:06 15,4 11,6 1,0 SE 6,0 1003,1 78 -
00:11 15,4 11,8   Kalm 5,0 1003,1 79 -
00:16 15,3 11,9 3,0 WNW 5,0 1003,1 80 -
00:21 15,3 11,9   Kalm 6,0 1003,1 80 -
00:26 15,2 12,0 5,0 West 8,0 1002,7 81 -
00:31 15,1 12,0 5,0 ENE 10,0 1002,7 82 -
00:36 15,1 12,0   Kalm 6,0 1002,4 82 -
00:41 15,0 12,0   Kalm 5,0 1002,4 82 -
00:46 14,9 12,0   Kalm 2,0 1002,4 83 -
00:51 14,9 12,0 3,0 NW 10,0 1002,0 83 -
00:56 14,8 12,1   Kalm 10,0 1002,0 84 -
01:01 14,7 12,0   Kalm 5,0 1002,4 84 -
01:06 14,7 12,0   Kalm 5,0 1002,0 84 -
01:11 14,6 11,9 1,0 WNW 3,0 1002,4 84 -
01:16 14,6 11,9 1,0 WNW 2,0 1002,4 84 -
01:21 14,6 12,1   Kalm 2,0 1002,4 85 -
01:26 14,7 12,2   Kalm 2,0 1002,0 85 -
01:31 14,6 11,9   Kalm 5,0 1002,0 84 -
01:36 14,6 11,9   Kalm 6,0 1002,0 84 -
01:41 14,6 11,9 1,0 ESE 5,0 1002,4 84 -
01:46 14,6 11,9 1,0 WNW 2,0 1002,0 84 -
01:51 14,6 11,9   Kalm 8,0 1002,0 84 -
01:56 14,6 11,9 6,0 East 10,0 1002,0 84 -
02:01 14,6 11,9 3,0 NW 8,0 1002,0 84 -
02:06 14,5 11,8 1,0 West 6,0 1002,0 84 -
02:11 14,4 11,7   Kalm 5,0 1002,0 84 -
02:16 14,5 11,8   Kalm 10,0 1002,0 84 -
02:21 14,4 11,7   Kalm 6,0 1002,0 84 -
02:26 14,5 11,8 3,0 ENE 5,0 1001,7 84 -
02:31 14,6 11,9 1,0 East 6,0 1001,7 84 -
02:36 14,5 11,8   Kalm 5,0 1001,7 84 -
02:41 14,4 11,7   Kalm 5,0 1001,7 84 -
02:46 14,4 11,7 3,0 ESE 8,0 1001,7 84 -
02:51 14,4 11,7   Kalm 5,0 1001,4 84 -
02:56 14,4 11,7   Kalm 3,0 1001,4 84 -
03:01 14,3 11,8   Kalm   1001,4 85 -
03:06 14,3 11,8 1,0 ENE 3,0 1001,4 85 -
03:11 14,3 11,8 1,0 East 2,0 1001,4 85 -
03:16 14,3 11,8   Kalm 2,0 1001,4 85 -
03:21 14,3 11,8 3,0 NW 3,0 1001,0 85 -
03:26 14,3 12,0   Kalm 6,0 1001,0 86 -
03:31 14,3 12,0   Kalm 5,0 1001,0 86 -
03:36 14,2 11,9   Kalm 3,0 1001,0 86 -
03:41 14,2 11,9   Kalm 3,0 1000,7 86 -
03:46 14,2 11,9   Kalm 3,0 1000,7 86 -
03:51 14,3 12,0   Kalm 3,0 1001,0 86 -
03:56 14,3 12,0   Kalm 3,0 1000,7 86 -
04:01 14,3 12,2   Kalm   1000,7 87 -
04:06 14,3 12,0   Kalm   1000,7 86 -
04:11 14,3 12,0   Kalm   1000,7 86 -
04:16 14,3 12,0   Kalm 2,0 1000,7 86 -
04:21 14,3 12,0   Kalm 2,0 1000,7 86 -
04:26 14,3 12,0 3,0 NW 5,0 1000,7 86 -
04:31 14,3 12,0   Kalm 3,0 1000,3 86 -
04:36 14,4 12,1 6,0 ESE 10,0 1000,3 86 -
04:41 14,4 11,9   Kalm 5,0 1000,3 85 -
04:46 14,4 11,9   Kalm 5,0 1000,3 85 -
04:51 14,4 11,9 3,0 ESE 3,0 1000,3 85 -
04:56 14,4 11,7   Kalm 6,0 1000,3 84 -
05:01 14,4 11,7   Kalm 5,0 1000,3 84 -
05:06 14,4 11,7 3,0 ESE 5,0 1000,3 84 -
05:11 14,3 11,6   Kalm 5,0 1000,3 84 -
05:16 14,3 11,6 5,0 WSW 6,0 1000,3 84 -
05:21 14,3 11,6 1,0 NW 6,0 1000,3 84 -
05:26 14,2 11,5 1,0 ESE 6,0 1000,3 84 -
05:31 14,2 11,5 1,0 North 6,0 1000,3 84 -
05:36 14,2 11,5   Kalm 5,0 1000,3 84 -
05:41 14,1 11,4 16,0 ENE 16,0 1000,3 84 -
05:46 14,1 11,4 1,0 NW 8,0 1000,3 84 -
05:51 14,1 11,4   Kalm 10,0 1000,3 84 -
05:56 14,1 11,4 3,0 ESE 10,0 1000,0 84 -
06:01 14,0 11,3 1,0 West 5,0 1000,0 84 -
06:06 14,0 11,3   Kalm 3,0 1000,0 84 -
06:11 14,0 11,3   Kalm 2,0 1000,0 84 -
06:16 13,9 11,2 1,0 West 3,0 1000,0 84 -
06:21 13,9 11,2 3,0 ESE 8,0 1000,0 84 -
06:26 13,9 11,2   Kalm 8,0 1000,0 84 -
06:31 13,9 11,2   Kalm 5,0 1000,0 84 -
06:36 14,0 11,3   Kalm 8,0 1000,0 84 -
06:41 14,0 11,3   Kalm 6,0 1000,0 84 -
06:46 14,0 11,3   Kalm 5,0 1000,0 84 -
06:51 14,1 11,4 5,0 East 8,0 1000,0 84 -
06:56 14,1 11,3 8,0 SE 8,0 999,7 83 -
07:01 14,1 11,3   Kalm 11,0 999,7 83 -
07:06 14,2 11,4   Kalm 8,0 1000,0 83 -
07:11 14,2 11,4 5,0 NW 8,0 999,7 83 -
07:16 14,3 11,5   Kalm 2,0 999,7 83 -
07:21 14,3 11,3 1,0 SE 8,0 999,7 82 -
07:26 14,4 11,4   Kalm 5,0 999,7 82 -
07:31 14,4 11,4 1,0 SE 6,0 999,7 82 -
07:36 14,4 11,4 1,0 NW 3,0 999,7 82 -
07:41 14,4 11,2 13,0 ENE 13,0 999,7 81 -
07:46 14,4 11,2 3,0 SSE 8,0 999,7 81 -
07:51 14,4 11,4 1,0 East 6,0 999,7 82 -
07:56 14,4 11,4 3,0 SSE 8,0 999,7 82 -
08:01 14,4 11,4 1,0 West 3,0 999,7 82 -
08:06 14,4 11,4 3,0 ENE 3,0 999,7 82 -
08:11 14,4 11,2 1,0 NW 6,0 999,7 81 -
08:16 14,4 11,2 3,0 WNW 11,0 999,7 81 -
08:21 14,4 11,2 5,0 WNW 10,0 999,7 81 -
08:26 14,4 11,2 1,0 SSE 6,0 999,7 81 -
08:31 14,4 11,2 3,0 ESE 10,0 999,7 81 -
08:36 14,4 11,2   Kalm 3,0 999,7 81 -
08:41 14,5 11,3   Kalm 5,0 999,7 81 -
08:46 14,4 11,0 1,0 ESE 6,0 999,7 80 -
08:51 14,4 11,0 3,0 ESE 3,0 999,7 80 -
08:57 14,4 11,0   Kalm 6,0 1000,0 80 -
09:02 14,4 11,0 1,0 ESE 10,0 999,7 80 -
09:07 14,4 10,8   Kalm 6,0 999,7 79 -
09:12 14,5 10,9 13,0 East 13,0 999,7 79 -
09:17 14,4 10,8 1,0 ESE 11,0 999,7 79 -
09:22 14,4 10,8 5,0 ESE 10,0 999,7 79 -
09:27 14,4 11,0   Kalm 11,0 999,7 80 -
09:32 14,4 11,0 5,0 ESE 13,0 999,7 80 -
09:37 14,3 11,1 6,0 WNW 8,0 999,7 81 -
09:42 14,1 11,1   Kalm 10,0 999,7 82 -
09:47 14,1 11,1 5,0 East 8,0 999,7 82 -
09:52 14,1 11,1 1,0 WNW 6,0 999,7 82 -
09:57 14,1 10,9 3,0 ENE 10,0 999,7 81 -
10:02 14,1 10,9   Kalm 3,0 999,7 81 -
10:07 14,1 10,7 1,0 SE 10,0 999,7 80 -
10:12 14,2 10,8 1,0 ESE 5,0 999,7 80 -
10:17 14,2 10,6 5,0 ENE 13,0 999,7 79 -
10:22 14,1 10,5   Kalm 5,0 999,7 79 -
10:27 14,1 10,5 1,0 SW 6,0 999,7 79 -
10:32 14,1 10,3 3,0 NE 15,0 999,7 78 -
10:37 14,0 10,2 3,0 ESE 8,0 999,7 78 -
10:42 14,1 10,3   Kalm 5,0 1000,0 78 -
10:47 14,0 10,2   Kalm 8,0 999,7 78 -
10:52 13,8 10,4 1,0 West 10,0 999,7 80 -
10:57 13,6 10,8   Kalm 8,0 1000,0 83 0,25
11:02 13,3 10,7 1,0 West 6,0 999,7 84 0,51
11:07 13,1 10,8   Kalm 8,0 999,7 86 0,51
11:12 13,1 11,0   Kalm 5,0 999,7 87 0,51
11:17 13,1 11,0 1,0 ESE 5,0 999,7 87 0,51
11:22 12,9 10,8   Kalm 8,0 999,7 87 0,76
11:27 12,9 10,8   Kalm 5,0 999,7 87 0,76
11:32 12,9 10,8   Kalm 6,0 999,7 87 0,76
11:37 12,9 10,8   Kalm 6,0 999,7 87 0,76
11:42 12,9 11,0   Kalm 3,0 1000,0 88 0,76
11:47 12,9 11,0   Kalm 5,0 1000,0 88 0,76
11:52 13,0 11,1   Kalm 5,0 1000,0 88 1,02
11:57 12,9 11,0   Kalm 2,0 999,7 88 0,76
12:02 13,0 11,2   Kalm 2,0 999,7 89 0,51
12:07 13,0 11,1 1,0 ESE 5,0 999,7 88 0,51
12:12 13,1 11,3   Kalm 2,0 999,7 89 0,51
12:17 13,1 11,2   Kalm 2,0 999,7 88 0,51
12:22 13,1 11,3 1,0 WNW 2,0 999,7 89 0,25
12:27 13,2 11,3   Kalm 6,0 999,7 88 0,25
12:32 13,3 11,4   Kalm 2,0 999,7 88 0,25
12:37 13,3 11,4 5,0 NW 6,0 999,7 88 0,25
12:42 13,3 11,4 1,0 ESE 2,0 999,7 88 0,25
12:47 13,4 11,5   Kalm 6,0 999,7 88 0,25
12:52 13,4 11,5   Kalm   999,7 88 -
12:57 13,5 11,6   Kalm   999,7 88 -
13:02 13,5 11,6   Kalm   999,7 88 -
13:07 13,5 11,6   Kalm 2,0 999,7 88 -
13:12 13,6 11,8   Kalm 2,0 999,7 89 -
13:17 13,6 11,8   Kalm   999,7 89 -
13:22 13,6 11,6   Kalm 3,0 999,7 88 -
13:27 13,6 11,6 1,0 WNW 5,0 999,7 88 -
13:32 13,5 11,6   Kalm 3,0 999,7 88 -
13:37 13,5 11,7   Kalm   999,7 89 -
13:42 13,5 11,6   Kalm 3,0 999,7 88 0,25
13:47 13,5 11,7 1,0 ENE 2,0 999,7 89 0,25
13:52 13,6 11,8   Kalm 2,0 999,7 89 0,51
13:57 13,6 11,8   Kalm   999,7 89 0,51
14:02 13,7 11,9   Kalm 3,0 999,7 89 0,51
14:07 13,7 11,9   Kalm 5,0 999,7 89 0,51
14:12 13,8 12,0 1,0 NNE 11,0 999,3 89 0,51
14:17 13,8 11,7   Kalm 6,0 999,3 87 0,51
14:22 13,9 11,8 1,0 WNW 6,0 999,7 87 0,51
14:27 13,9 11,4 8,0 WNW 13,0 999,3 85 0,51
14:32 14,1 11,6 5,0 NNW 6,0 999,3 85 0,51
14:37 14,2 11,7   Kalm 5,0 999,3 85 0,51
14:42 14,3 11,6 8,0 SE 8,0 999,3 84 0,51
14:47 14,4 11,5 1,0 WNW 13,0 999,7 83 0,51
14:52 14,4 11,4 6,0 NW 13,0 999,3 82 0,25
14:57 14,4 11,2 5,0 NW 10,0 999,7 81 0,25
15:02 14,4 11,2 3,0 WNW 15,0 999,3 81 -
15:07 14,4 11,0 1,0 WNW 6,0 999,3 80 -
15:12 14,5 11,1 8,0 East 8,0 999,3 80 -
15:17 14,6 11,2 3,0 NNW 16,0 999,3 80 -
15:22 14,4 11,0 3,0 NW 11,0 999,3 80 -
15:27 14,3 10,9 6,0 West 18,0 999,7 80 -
15:32 14,2 11,0 6,0 NW 15,0 999,7 81 -
15:37 14,1 11,1 5,0 SE 11,0 999,7 82 -
15:42 13,9 10,7 5,0 NNE 16,0 999,7 81 -
15:47 13,8 10,4   Kalm 11,0 999,7 80 -
15:52 13,8 10,4 3,0 WNW 11,0 999,7 80 -
15:57 13,9 10,7 3,0 NNE 15,0 999,3 81 -
16:02 14,0 10,8 1,0 NE 11,0 999,7 81 -
16:07 14,0 10,8 5,0 WSW 15,0 999,7 81 -
16:12 13,9 10,3 1,0 SE 11,0 999,7 79 -
16:17 13,8 10,2 5,0 West 11,0 999,7 79 -
16:22 13,8 10,0 3,0 WSW 13,0 999,7 78 -
16:27 13,8 10,0 8,0 NW 10,0 999,7 78 -
16:32 13,9 10,1 1,0 SE 8,0 999,7 78 -
16:37 13,9 10,1 14,0 ESE 18,0 999,7 78 -
16:42 14,0 10,2 1,0 WNW 11,0 999,7 78 -
16:47 14,2 10,6 6,0 WNW 16,0 999,7 79 -
16:52 14,3 10,3 5,0 North 13,0 999,7 77 -
16:57 14,4 10,4 1,0 ESE 15,0 999,7 77 -
17:02 14,4 10,0 3,0 NNW 10,0 999,7 75 -
17:07 14,4 9,8 3,0 WNW 10,0 999,7 74 -
17:12 14,2 9,6 3,0 NW 15,0 999,7 74 -
17:17 13,9 9,5 6,0 West 11,0 999,7 75 -
17:22 13,8 9,6 6,0 ESE 10,0 999,7 76 -
17:27 14,1 9,9   Kalm 6,0 999,7 76 -
17:32 14,3 9,9 10,0 WNW 10,0 999,7 75 -
17:37 14,4 9,6 1,0 WNW 18,0 999,3 73 -
17:42 14,6 9,6 6,0 ENE 16,0 999,3 72 -
17:47 14,9 9,5 8,0 ESE 16,0 999,3 70 -
17:52 14,9 9,3 6,0 WNW 11,0 999,3 69 -
17:57 14,8 9,2 10,0 SE 13,0 999,3 69 -
18:02 14,7 9,1 1,0 East 10,0 999,3 69 -
18:07 14,7 9,1 5,0 WNW 11,0 999,3 69 -
18:12 14,7 8,6 5,0 West 16,0 999,3 67 -
18:17 14,8 8,7 6,0 NW 10,0 999,3 67 -
18:22 15,1 8,8 8,0 NW 18,0 999,7 66 -
18:27 15,0 8,7 6,0 ESE 13,0 999,3 66 -
18:32 14,9 8,6   Kalm 10,0 999,7 66 -
18:37 14,7 8,4 5,0 SE 11,0 999,3 66 -
18:42 14,5 8,9 6,0 WNW 13,0 999,7 69 -
18:48 14,4 8,8 5,0 NNE 16,0 999,7 69 -
18:53 14,3 8,7 3,0 North 18,0 999,7 69 -
18:58 14,2 8,6 13,0 SW 18,0 999,7 69 -
19:03 14,1 8,7 1,0 WNW 13,0 999,7 70 -
19:08 14,0 8,8 6,0 WNW 18,0 999,7 71 -
19:13 13,8 8,6 3,0 ESE 10,0 1000,0 71 -
19:18 13,8 8,6 16,0 West 18,0 1000,0 71 -
19:23 13,7 8,5 5,0 WNW 13,0 1000,0 71 -
19:28 13,7 8,3 5,0 SE 15,0 1000,0 70 -
19:33 13,6 8,2 10,0 WNW 18,0 1000,3 70 -
19:38 13,6 8,4 13,0 ESE 19,0 1000,3 71 -
Daily Summary for Thursday Jun 4 2020
Time Temp. ( °C ) Dew pt. ( °C ) Wind ( km/h ) From Gust ( km/h ) Pressure ( hPa ) Humid.( % ) Rainrate ( cm )
High15,6 12,2 16,0 WNW ( 100/536 ) 19,0 1003,1 89 1,02
Average14,2 11,0 2,3 Kalm #100/236 7,5 1000,2 82 1,00
Low12,9 8,2 -   0,0 999,3 66 -
Daily Tabular details for Thursday Jun 4 2020
Time Temp. ( °C ) Dew pt. ( °C ) Wind ( km/h ) From Gust ( km/h ) Pressure ( hPa ) Humid.( % ) Rainrate ( cm )
00:01 15,6 11,8   Kalm 3,0 1003,1 78 -
00:06 15,4 11,6 1,0 SE 6,0 1003,1 78 -
00:11 15,4 11,8   Kalm 5,0 1003,1 79 -
00:16 15,3 11,9 3,0 WNW 5,0 1003,1 80 -
00:21 15,3 11,9   Kalm 6,0 1003,1 80 -
00:26 15,2 12,0 5,0 West 8,0 1002,7 81 -
00:31 15,1 12,0 5,0 ENE 10,0 1002,7 82 -
00:36 15,1 12,0   Kalm 6,0 1002,4 82 -
00:41 15,0 12,0   Kalm 5,0 1002,4 82 -
00:46 14,9 12,0   Kalm 2,0 1002,4 83 -
00:51 14,9 12,0 3,0 NW 10,0 1002,0 83 -
00:56 14,8 12,1   Kalm 10,0 1002,0 84 -
01:01 14,7 12,0   Kalm 5,0 1002,4 84 -
01:06 14,7 12,0   Kalm 5,0 1002,0 84 -
01:11 14,6 11,9 1,0 WNW 3,0 1002,4 84 -
01:16 14,6 11,9 1,0 WNW 2,0 1002,4 84 -
01:21 14,6 12,1   Kalm 2,0 1002,4 85 -
01:26 14,7 12,2   Kalm 2,0 1002,0 85 -
01:31 14,6 11,9   Kalm 5,0 1002,0 84 -
01:36 14,6 11,9   Kalm 6,0 1002,0 84 -
01:41 14,6 11,9 1,0 ESE 5,0 1002,4 84 -
01:46 14,6 11,9 1,0 WNW 2,0 1002,0 84 -
01:51 14,6 11,9   Kalm 8,0 1002,0 84 -
01:56 14,6 11,9 6,0 East 10,0 1002,0 84 -
02:01 14,6 11,9 3,0 NW 8,0 1002,0 84 -
02:06 14,5 11,8 1,0 West 6,0 1002,0 84 -
02:11 14,4 11,7   Kalm 5,0 1002,0 84 -
02:16 14,5 11,8   Kalm 10,0 1002,0 84 -
02:21 14,4 11,7   Kalm 6,0 1002,0 84 -
02:26 14,5 11,8 3,0 ENE 5,0 1001,7 84 -
02:31 14,6 11,9 1,0 East 6,0 1001,7 84 -
02:36 14,5 11,8   Kalm 5,0 1001,7 84 -
02:41 14,4 11,7   Kalm 5,0 1001,7 84 -
02:46 14,4 11,7 3,0 ESE 8,0 1001,7 84 -
02:51 14,4 11,7   Kalm 5,0 1001,4 84 -
02:56 14,4 11,7   Kalm 3,0 1001,4 84 -
03:01 14,3 11,8   Kalm   1001,4 85 -
03:06 14,3 11,8 1,0 ENE 3,0 1001,4 85 -
03:11 14,3 11,8 1,0 East 2,0 1001,4 85 -
03:16 14,3 11,8   Kalm 2,0 1001,4 85 -
03:21 14,3 11,8 3,0 NW 3,0 1001,0 85 -
03:26 14,3 12,0   Kalm 6,0 1001,0 86 -
03:31 14,3 12,0   Kalm 5,0 1001,0 86 -
03:36 14,2 11,9   Kalm 3,0 1001,0 86 -
03:41 14,2 11,9   Kalm 3,0 1000,7 86 -
03:46 14,2 11,9   Kalm 3,0 1000,7 86 -
03:51 14,3 12,0   Kalm 3,0 1001,0 86 -
03:56 14,3 12,0   Kalm 3,0 1000,7 86 -
04:01 14,3 12,2   Kalm   1000,7 87 -
04:06 14,3 12,0   Kalm   1000,7 86 -
04:11 14,3 12,0   Kalm   1000,7 86 -
04:16 14,3 12,0   Kalm 2,0 1000,7 86 -
04:21 14,3 12,0   Kalm 2,0 1000,7 86 -
04:26 14,3 12,0 3,0 NW 5,0 1000,7 86 -
04:31 14,3 12,0   Kalm 3,0 1000,3 86 -
04:36 14,4 12,1 6,0 ESE 10,0 1000,3 86 -
04:41 14,4 11,9   Kalm 5,0 1000,3 85 -
04:46 14,4 11,9   Kalm 5,0 1000,3 85 -
04:51 14,4 11,9 3,0 ESE 3,0 1000,3 85 -
04:56 14,4 11,7   Kalm 6,0 1000,3 84 -
05:01 14,4 11,7   Kalm 5,0 1000,3 84 -
05:06 14,4 11,7 3,0 ESE 5,0 1000,3 84 -
05:11 14,3 11,6   Kalm 5,0 1000,3 84 -
05:16 14,3 11,6 5,0 WSW 6,0 1000,3 84 -
05:21 14,3 11,6 1,0 NW 6,0 1000,3 84 -
05:26 14,2 11,5 1,0 ESE 6,0 1000,3 84 -
05:31 14,2 11,5 1,0 North 6,0 1000,3 84 -
05:36 14,2 11,5   Kalm 5,0 1000,3 84 -
05:41 14,1 11,4 16,0 ENE 16,0 1000,3 84 -
05:46 14,1 11,4 1,0 NW 8,0 1000,3 84 -
05:51 14,1 11,4   Kalm 10,0 1000,3 84 -
05:56 14,1 11,4 3,0 ESE 10,0 1000,0 84 -
06:01 14,0 11,3 1,0 West 5,0 1000,0 84 -
06:06 14,0 11,3   Kalm 3,0 1000,0 84 -
06:11 14,0 11,3   Kalm 2,0 1000,0 84 -
06:16 13,9 11,2 1,0 West 3,0 1000,0 84 -
06:21 13,9 11,2 3,0 ESE 8,0 1000,0 84 -
06:26 13,9 11,2   Kalm 8,0 1000,0 84 -
06:31 13,9 11,2   Kalm 5,0 1000,0 84 -
06:36 14,0 11,3   Kalm 8,0 1000,0 84 -
06:41 14,0 11,3   Kalm 6,0 1000,0 84 -
06:46 14,0 11,3   Kalm 5,0 1000,0 84 -
06:51 14,1 11,4 5,0 East 8,0 1000,0 84 -
06:56 14,1 11,3 8,0 SE 8,0 999,7 83 -
07:01 14,1 11,3   Kalm 11,0 999,7 83 -
07:06 14,2 11,4   Kalm 8,0 1000,0 83 -
07:11 14,2 11,4 5,0 NW 8,0 999,7 83 -
07:16 14,3 11,5   Kalm 2,0 999,7 83 -
07:21 14,3 11,3 1,0 SE 8,0 999,7 82 -
07:26 14,4 11,4   Kalm 5,0 999,7 82 -
07:31 14,4 11,4 1,0 SE 6,0 999,7 82 -
07:36 14,4 11,4 1,0 NW 3,0 999,7 82 -
07:41 14,4 11,2 13,0 ENE 13,0 999,7 81 -
07:46 14,4 11,2 3,0 SSE 8,0 999,7 81 -
07:51 14,4 11,4 1,0 East 6,0 999,7 82 -
07:56 14,4 11,4 3,0 SSE 8,0 999,7 82 -
08:01 14,4 11,4 1,0 West 3,0 999,7 82 -
08:06 14,4 11,4 3,0 ENE 3,0 999,7 82 -
08:11 14,4 11,2 1,0 NW 6,0 999,7 81 -
08:16 14,4 11,2 3,0 WNW 11,0 999,7 81 -
08:21 14,4 11,2 5,0 WNW 10,0 999,7 81 -
08:26 14,4 11,2 1,0 SSE 6,0 999,7 81 -
08:31 14,4 11,2 3,0 ESE 10,0 999,7 81 -
08:36 14,4 11,2   Kalm 3,0 999,7 81 -
08:41 14,5 11,3   Kalm 5,0 999,7 81 -
08:46 14,4 11,0 1,0 ESE 6,0 999,7 80 -
08:51 14,4 11,0 3,0 ESE 3,0 999,7 80 -
08:57 14,4 11,0   Kalm 6,0 1000,0 80 -
09:02 14,4 11,0 1,0 ESE 10,0 999,7 80 -
09:07 14,4 10,8   Kalm 6,0 999,7 79 -
09:12 14,5 10,9 13,0 East 13,0 999,7 79 -
09:17 14,4 10,8 1,0 ESE 11,0 999,7 79 -
09:22 14,4 10,8 5,0 ESE 10,0 999,7 79 -
09:27 14,4 11,0   Kalm 11,0 999,7 80 -
09:32 14,4 11,0 5,0 ESE 13,0 999,7 80 -
09:37 14,3 11,1 6,0 WNW 8,0 999,7 81 -
09:42 14,1 11,1   Kalm 10,0 999,7 82 -
09:47 14,1 11,1 5,0 East 8,0 999,7 82 -
09:52 14,1 11,1 1,0 WNW 6,0 999,7 82 -
09:57 14,1 10,9 3,0 ENE 10,0 999,7 81 -
10:02 14,1 10,9   Kalm 3,0 999,7 81 -
10:07 14,1 10,7 1,0 SE 10,0 999,7 80 -
10:12 14,2 10,8 1,0 ESE 5,0 999,7 80 -
10:17 14,2 10,6 5,0 ENE 13,0 999,7 79 -
10:22 14,1 10,5   Kalm 5,0 999,7 79 -
10:27 14,1 10,5 1,0 SW 6,0 999,7 79 -
10:32 14,1 10,3 3,0 NE 15,0 999,7 78 -
10:37 14,0 10,2 3,0 ESE 8,0 999,7 78 -
10:42 14,1 10,3   Kalm 5,0 1000,0 78 -
10:47 14,0 10,2   Kalm 8,0 999,7 78 -
10:52 13,8 10,4 1,0 West 10,0 999,7 80 -
10:57 13,6 10,8   Kalm 8,0 1000,0 83 0,25
11:02 13,3 10,7 1,0 West 6,0 999,7 84 0,51
11:07 13,1 10,8   Kalm 8,0 999,7 86 0,51
11:12 13,1 11,0   Kalm 5,0 999,7 87 0,51
11:17 13,1 11,0 1,0 ESE 5,0 999,7 87 0,51
11:22 12,9 10,8   Kalm 8,0 999,7 87 0,76
11:27 12,9 10,8   Kalm 5,0 999,7 87 0,76
11:32 12,9 10,8   Kalm 6,0 999,7 87 0,76
11:37 12,9 10,8   Kalm 6,0 999,7 87 0,76
11:42 12,9 11,0   Kalm 3,0 1000,0 88 0,76
11:47 12,9 11,0   Kalm 5,0 1000,0 88 0,76
11:52 13,0 11,1   Kalm 5,0 1000,0 88 1,02
11:57 12,9 11,0   Kalm 2,0 999,7 88 0,76
12:02 13,0 11,2   Kalm 2,0 999,7 89 0,51
12:07 13,0 11,1 1,0 ESE 5,0 999,7 88 0,51
12:12 13,1 11,3   Kalm 2,0 999,7 89 0,51
12:17 13,1 11,2   Kalm 2,0 999,7 88 0,51
12:22 13,1 11,3 1,0 WNW 2,0 999,7 89 0,25
12:27 13,2 11,3   Kalm 6,0 999,7 88 0,25
12:32 13,3 11,4   Kalm 2,0 999,7 88 0,25
12:37 13,3 11,4 5,0 NW 6,0 999,7 88 0,25
12:42 13,3 11,4 1,0 ESE 2,0 999,7 88 0,25
12:47 13,4 11,5   Kalm 6,0 999,7 88 0,25
12:52 13,4 11,5   Kalm   999,7 88 -
12:57 13,5 11,6   Kalm   999,7 88 -
13:02 13,5 11,6   Kalm   999,7 88 -
13:07 13,5 11,6   Kalm 2,0 999,7 88 -
13:12 13,6 11,8   Kalm 2,0 999,7 89 -
13:17 13,6 11,8   Kalm   999,7 89 -
13:22 13,6 11,6   Kalm 3,0 999,7 88 -
13:27 13,6 11,6 1,0 WNW 5,0 999,7 88 -
13:32 13,5 11,6   Kalm 3,0 999,7 88 -
13:37 13,5 11,7   Kalm   999,7 89 -
13:42 13,5 11,6   Kalm 3,0 999,7 88 0,25
13:47 13,5 11,7 1,0 ENE 2,0 999,7 89 0,25
13:52 13,6 11,8   Kalm 2,0 999,7 89 0,51
13:57 13,6 11,8   Kalm   999,7 89 0,51
14:02 13,7 11,9   Kalm 3,0 999,7 89 0,51
14:07 13,7 11,9   Kalm 5,0 999,7 89 0,51
14:12 13,8 12,0 1,0 NNE 11,0 999,3 89 0,51
14:17 13,8 11,7   Kalm 6,0 999,3 87 0,51
14:22 13,9 11,8 1,0 WNW 6,0 999,7 87 0,51
14:27 13,9 11,4 8,0 WNW 13,0 999,3 85 0,51
14:32 14,1 11,6 5,0 NNW 6,0 999,3 85 0,51
14:37 14,2 11,7   Kalm 5,0 999,3 85 0,51
14:42 14,3 11,6 8,0 SE 8,0 999,3 84 0,51
14:47 14,4 11,5 1,0 WNW 13,0 999,7 83 0,51
14:52 14,4 11,4 6,0 NW 13,0 999,3 82 0,25
14:57 14,4 11,2 5,0 NW 10,0 999,7 81 0,25
15:02 14,4 11,2 3,0 WNW 15,0 999,3 81 -
15:07 14,4 11,0 1,0 WNW 6,0 999,3 80 -
15:12 14,5 11,1 8,0 East 8,0 999,3 80 -
15:17 14,6 11,2 3,0 NNW 16,0 999,3 80 -
15:22 14,4 11,0 3,0 NW 11,0 999,3 80 -
15:27 14,3 10,9 6,0 West 18,0 999,7 80 -
15:32 14,2 11,0 6,0 NW 15,0 999,7 81 -
15:37 14,1 11,1 5,0 SE 11,0 999,7 82 -
15:42 13,9 10,7 5,0 NNE 16,0 999,7 81 -
15:47 13,8 10,4   Kalm 11,0 999,7 80 -
15:52 13,8 10,4 3,0 WNW 11,0 999,7 80 -
15:57 13,9 10,7 3,0 NNE 15,0 999,3 81 -
16:02 14,0 10,8 1,0 NE 11,0 999,7 81 -
16:07 14,0 10,8 5,0 WSW 15,0 999,7 81 -
16:12 13,9 10,3 1,0 SE 11,0 999,7 79 -
16:17 13,8 10,2 5,0 West 11,0 999,7 79 -
16:22 13,8 10,0 3,0 WSW 13,0 999,7 78 -
16:27 13,8 10,0 8,0 NW 10,0 999,7 78 -
16:32 13,9 10,1 1,0 SE 8,0 999,7 78 -
16:37 13,9 10,1 14,0 ESE 18,0 999,7 78 -
16:42 14,0 10,2 1,0 WNW 11,0 999,7 78 -
16:47 14,2 10,6 6,0 WNW 16,0 999,7 79 -
16:52 14,3 10,3 5,0 North 13,0 999,7 77 -
16:57 14,4 10,4 1,0 ESE 15,0 999,7 77 -
17:02 14,4 10,0 3,0 NNW 10,0 999,7 75 -
17:07 14,4 9,8 3,0 WNW 10,0 999,7 74 -
17:12 14,2 9,6 3,0 NW 15,0 999,7 74 -
17:17 13,9 9,5 6,0 West 11,0 999,7 75 -
17:22 13,8 9,6 6,0 ESE 10,0 999,7 76 -
17:27 14,1 9,9   Kalm 6,0 999,7 76 -
17:32 14,3 9,9 10,0 WNW 10,0 999,7 75 -
17:37 14,4 9,6 1,0 WNW 18,0 999,3 73 -
17:42 14,6 9,6 6,0 ENE 16,0 999,3 72 -
17:47 14,9 9,5 8,0 ESE 16,0 999,3 70 -
17:52 14,9 9,3 6,0 WNW 11,0 999,3 69 -
17:57 14,8 9,2 10,0 SE 13,0 999,3 69 -
18:02 14,7 9,1 1,0 East 10,0 999,3 69 -
18:07 14,7 9,1 5,0 WNW 11,0 999,3 69 -
18:12 14,7 8,6 5,0 West 16,0 999,3 67 -
18:17 14,8 8,7 6,0 NW 10,0 999,3 67 -
18:22 15,1 8,8 8,0 NW 18,0 999,7 66 -
18:27 15,0 8,7 6,0 ESE 13,0 999,3 66 -
18:32 14,9 8,6   Kalm 10,0 999,7 66 -
18:37 14,7 8,4 5,0 SE 11,0 999,3 66 -
18:42 14,5 8,9 6,0 WNW 13,0 999,7 69 -
18:48 14,4 8,8 5,0 NNE 16,0 999,7 69 -
18:53 14,3 8,7 3,0 North 18,0 999,7 69 -
18:58 14,2 8,6 13,0 SW 18,0 999,7 69 -
19:03 14,1 8,7 1,0 WNW 13,0 999,7 70 -
19:08 14,0 8,8 6,0 WNW 18,0 999,7 71 -
19:13 13,8 8,6 3,0 ESE 10,0 1000,0 71 -
19:18 13,8 8,6 16,0 West 18,0 1000,0 71 -
19:23 13,7 8,5 5,0 WNW 13,0 1000,0 71 -
19:28 13,7 8,3 5,0 SE 15,0 1000,0 70 -
19:33 13,6 8,2 10,0 WNW 18,0 1000,3 70 -
19:38 13,6 8,4 13,0 ESE 19,0 1000,3 71 -

Download your copy of this data-set  from WeatherUnderground

Our weather-data as stored at Weather Underground. Original script b Jim McMurry. Rewritten for template use Leuven-Template